Location: São Paulo
(23.5507°S, 46.6334°W)
Time: 06:48:54
(UTC-03:00)

Vanguard 2 Rocket - Pass Details

Date: 16 February 2026
Orbit: 553 x 3286 km, 32.9° (Epoch: 7 March)

Event Time Altitude Azimuth Distance (km) Brightness Sun altitude
Rises 05:28:57 0° 247° (WSW) 4,387 9.9 -6.6°
Reaches altitude 10° 05:31:25 10° 243° (WSW) 3,694 9.6 -6.1°
Maximum altitude 05:41:41 68° 160° (SSE) 2,352 9.2 -3.8°
Drops below altitude 10° 05:59:15 10° 78° (ENE) 5,974 12.4 0.1°
Sets 06:04:28 0° 76° (ENE) 7,171 12.8 1.3°
